{"data":{"norad_id":57953,"intl_designator":"2023-148U","name":"STARLINK-30700","alt_names":[],"object_type":"PAYLOAD","status":"ACTIVE","operator":null,"country":"US","launch_date":"2023-09-25","launch_site_code":"AFWTR","launch_vehicle":null,"mission":null,"orbit_class":"UNKNOWN","rcs_meters":null,"size_class":null,"mass_kg":null,"dimensions":null,"purposes":["comms"],"wikipedia_slug":null,"has_3d_model":false,"image_url":null,"decayed_at":null,"tle_current":{"epoch":"2026-09-20T04:23:18.990816Z","epoch_age_seconds":165087,"freshness":"FRESH","line1":"1 57953U 23148U   26263.18285869  .00001003  00000+0  40831-4 0  9996","line2":"2 57953  53.1583 188.8946 0001425  67.1505 292.9648 15.34390626168369","mean_motion":15.34390626,"eccentricity":0.0001425,"inclination_deg":53.1583,"raan_deg":188.8946,"arg_perigee_deg":67.1505,"mean_anomaly_deg":292.9648,"bstar":4.0831e-5,"rev_number":16836,"period_min":93.848331422223,"perigee_km":461.75627814792,"apogee_km":463.70592555694,"semimajor_km":6840.8681018524,"source":"CELESTRAK","updated_at":"2026-09-21T09:00:33.747895Z"}}}